EN

Hourly Weather Dziegiele

Today, 25 October, Sunday

Time Temperature Precipitation Wind Pressure Humidity
00:00 +9°C° 0 mm 2 mps 747 mmHg 95%
01:00 +9°C° 0 mm 2 mps 747 mmHg 95%
02:00 +9°C° 0 mm 2 mps 747 mmHg 94%
03:00 +8°C° 0 mm 2 mps 747 mmHg 94%
04:00 +8°C° 0 mm 2 mps 747 mmHg 94%
05:00 +8°C° 0 mm 2 mps 747 mmHg 95%
06:00 +8°C° 0 mm 2 mps 747 mmHg 95%
07:00 +8°C° 0 mm 2 mps 747 mmHg 96%
08:00 +9°C° 0 mm 2 mps 747 mmHg 91%
09:00 +12°C° 0 mm 2 mps 748 mmHg 86%
10:00 +12°C° 0 mm 3 mps 748 mmHg 82%
11:00 +13°C° 0 mm 3 mps 748 mmHg 78%
12:00 +14°C° 0 mm 3 mps 748 mmHg 75%
13:00 +16°C° 0 mm 3 mps 747 mmHg 71%
14:00 +14°C° 0 mm 3 mps 747 mmHg 75%
15:00 +14°C° 0 mm 2 mps 747 mmHg 80%
16:00 +13°C° 0 mm 2 mps 746 mmHg 84%
17:00 +12°C° 0 mm 2 mps 746 mmHg 86%
18:00 +11°C° 0 mm 3 mps 747 mmHg 88%
19:00 +10°C° 0 mm 3 mps 747 mmHg 90%
20:00 +10°C° 0 mm 3 mps 747 mmHg 91%
21:00 +10°C° 0 mm 3 mps 747 mmHg 92%
22:00 +10°C° 0 mm 3 mps 746 mmHg 92%
23:00 +9°C° 0 mm 3 mps 746 mmHg 92%

Tomorrow, 26 October, Monday

Time Temperature Precipitation Wind Pressure Humidity
00:00 +9°C° 0 mm 3 mps 746 mmHg 91%
01:00 +9°C° 0 mm 3 mps 746 mmHg 91%
02:00 +8°C° 0 mm 4 mps 746 mmHg 91%
03:00 +8°C° 0 mm 4 mps 745 mmHg 90%
04:00 +8°C° 0 mm 5 mps 745 mmHg 89%
05:00 +8°C° 0 mm 5 mps 745 mmHg 90%
06:00 +8°C° 0 mm 5 mps 744 mmHg 90%
07:00 +9°C° 0 mm 5 mps 744 mmHg 91%
08:00 +10°C° 0 mm 5 mps 744 mmHg 89%
09:00 +10°C° 0 mm 6 mps 744 mmHg 87%
10:00 +11°C° 0 mm 6 mps 744 mmHg 85%
11:00 +13°C° 0 mm 6 mps 744 mmHg 83%
12:00 +13°C° 0 mm 5 mps 744 mmHg 81%
13:00 +14°C° 0 mm 5 mps 743 mmHg 78%
14:00 +14°C° 0 mm 5 mps 743 mmHg 79%
15:00 +14°C° 0 mm 4 mps 743 mmHg 79%
16:00 +14°C° 0 mm 4 mps 743 mmHg 79%
17:00 +14°C° 0 mm 4 mps 743 mmHg 79%
18:00 +14°C° 0 mm 4 mps 743 mmHg 79%
19:00 +14°C° 0 mm 5 mps 743 mmHg 80%
20:00 +13°C° 0 mm 5 mps 743 mmHg 82%
21:00 +13°C° 0 mm 5 mps 743 mmHg 84%
22:00 +12°C° 0 mm 5 mps 743 mmHg 87%
23:00 +12°C° 0 mm 5 mps 743 mmHg 88%

Day after tomorrow, 27 October, Tuesday

Time Temperature Precipitation Wind Pressure Humidity
00:00 +11°C° 0 mm 4 mps 743 mmHg 89%
01:00 +11°C° 0 mm 4 mps 743 mmHg 90%
02:00 +11°C° 0 mm 4 mps 743 mmHg 89%
03:00 +12°C° 0 mm 4 mps 743 mmHg 88%
04:00 +12°C° 0 mm 4 mps 743 mmHg 87%
05:00 +12°C° 0 mm 4 mps 743 mmHg 89%
06:00 +12°C° 0 mm 3 mps 743 mmHg 90%
07:00 +11°C° 0 mm 3 mps 743 mmHg 91%
08:00 +12°C° 0 mm 3 mps 743 mmHg 89%
09:00 +13°C° 0 mm 3 mps 744 mmHg 87%
10:00 +13°C° 0 mm 3 mps 744 mmHg 85%
11:00 +14°C° 0 mm 4 mps 744 mmHg 79%
12:00 +17°C° 0 mm 4 mps 744 mmHg 72%
13:00 +18°C° 0 mm 4 mps 744 mmHg 65%
14:00 +17°C° 0 mm 4 mps 744 mmHg 70%
15:00 +15°C° 0 mm 4 mps 744 mmHg 74%
16:00 +14°C° 0 mm 4 mps 744 mmHg 79%
17:00 +14°C° 0 mm 4 mps 744 mmHg 80%
18:00 +14°C° 0 mm 4 mps 744 mmHg 81%
19:00 +13°C° 0 mm 5 mps 744 mmHg 82%
20:00 +13°C° 0 mm 5 mps 744 mmHg 82%
21:00 +13°C° 0 mm 5 mps 744 mmHg 81%
22:00 +13°C° 0 mm 5 mps 744 mmHg 80%
23:00 +12°C° 0 mm 4 mps 744 mmHg 83%

28 October, Wednesday

Time Temperature Precipitation Wind Pressure Humidity
00:00 +12°C° 0 mm 4 mps 744 mmHg 85%
01:00 +11°C° 0 mm 3 mps 745 mmHg 88%
02:00 +11°C° 0 mm 3 mps 745 mmHg 90%
03:00 +10°C° 0 mm 2 mps 745 mmHg 92%
04:00 +10°C° 0 mm 2 mps 745 mmHg 95%
05:00 +10°C° 0 mm 2 mps 745 mmHg 93%
06:00 +11°C° 0 mm 1 mps 746 mmHg 92%
07:00 +11°C° 0 mm 1 mps 746 mmHg 91%
08:00 +12°C° 0 mm 1 mps 746 mmHg 87%
09:00 +12°C° 0 mm 1 mps 747 mmHg 84%
10:00 +13°C° 0 mm 1 mps 747 mmHg 80%
11:00 +13°C° 0 mm 2 mps 747 mmHg 77%
12:00 +14°C° 0 mm 2 mps 747 mmHg 74%
13:00 +14°C° 0 mm 2 mps 747 mmHg 72%
14:00 +14°C° 0 mm 2 mps 747 mmHg 75%
15:00 +13°C° 0 mm 2 mps 747 mmHg 79%
16:00 +12°C° 0 mm 2 mps 747 mmHg 82%
17:00 +12°C° 0 mm 2 mps 747 mmHg 84%
18:00 +12°C° 0 mm 2 mps 747 mmHg 87%
19:00 +10°C° 0 mm 2 mps 747 mmHg 89%
20:00 +10°C° 0 mm 2 mps 747 mmHg 89%
21:00 +10°C° 0 mm 2 mps 747 mmHg 88%
22:00 +10°C° 0 mm 2 mps 747 mmHg 88%
23:00 +12°C° 0.1 mm 2 mps 747 mmHg 88%

29 October, Thursday

Time Temperature Precipitation Wind Pressure Humidity
00:00 +12°C° 0.1 mm 2 mps 746 mmHg 89%
01:00 +12°C° 0.1 mm 2 mps 746 mmHg 89%
02:00 +10°C° 0 mm 2 mps 746 mmHg 91%
03:00 +10°C° 0 mm 2 mps 746 mmHg 92%
04:00 +10°C° 0 mm 2 mps 746 mmHg 94%
05:00 +9°C° 0 mm 2 mps 746 mmHg 93%
06:00 +9°C° 0 mm 3 mps 746 mmHg 93%
07:00 +8°C° 0 mm 3 mps 746 mmHg 93%
08:00 +10°C° 0 mm 3 mps 747 mmHg 84%
09:00 +11°C° 0 mm 3 mps 747 mmHg 76%
10:00 +12°C° 0 mm 4 mps 747 mmHg 68%
11:00 +13°C° 0 mm 4 mps 747 mmHg 66%
12:00 +13°C° 0 mm 5 mps 747 mmHg 64%
13:00 +14°C° 0 mm 5 mps 747 mmHg 62%
14:00 +13°C° 0 mm 5 mps 747 mmHg 65%
15:00 +13°C° 0 mm 4 mps 747 mmHg 68%
16:00 +12°C° 0 mm 3 mps 747 mmHg 71%
17:00 +11°C° 0.2 mm 3 mps 747 mmHg 74%
18:00 +11°C° 0.2 mm 3 mps 748 mmHg 78%
19:00 +10°C° 0.2 mm 3 mps 748 mmHg 82%
20:00 +10°C° 0 mm 3 mps 748 mmHg 84%
21:00 +9°C° 0 mm 3 mps 749 mmHg 86%
22:00 +8°C° 0 mm 3 mps 749 mmHg 88%
23:00 +8°C° 0 mm 3 mps 749 mmHg 88%

30 October, Friday

Time Temperature Precipitation Wind Pressure Humidity
00:00 +7°C° 0 mm 3 mps 749 mmHg 88%
01:00 +7°C° 0 mm 3 mps 749 mmHg 89%
02:00 +7°C° 0 mm 3 mps 749 mmHg 89%
03:00 +7°C° 0 mm 3 mps 749 mmHg 90%
04:00 +7°C° 0 mm 3 mps 749 mmHg 91%
05:00 +7°C° 0 mm 3 mps 749 mmHg 89%
06:00 +6°C° 0 mm 4 mps 749 mmHg 87%
07:00 +7°C° 0 mm 4 mps 749 mmHg 85%
08:00 +7°C° 0 mm 5 mps 749 mmHg 82%
09:00 +8°C° 0 mm 5 mps 749 mmHg 80%
10:00 +9°C° 0 mm 5 mps 749 mmHg 77%
11:00 +9°C° 0 mm 5 mps 749 mmHg 77%
12:00 +10°C° 0 mm 5 mps 749 mmHg 77%
13:00 +10°C° 0 mm 5 mps 749 mmHg 77%
14:00 +10°C° 0 mm 5 mps 749 mmHg 79%
15:00 +10°C° 0 mm 5 mps 749 mmHg 81%
16:00 +11°C° 0 mm 4 mps 749 mmHg 83%
17:00 +11°C° 0 mm 4 mps 749 mmHg 83%
18:00 +10°C° 0 mm 5 mps 750 mmHg 84%
19:00 +10°C° 0 mm 5 mps 750 mmHg 84%
20:00 +11°C° 0 mm 4 mps 750 mmHg 86%
21:00 +11°C° 0 mm 4 mps 750 mmHg 87%
22:00 +10°C° 0 mm 4 mps 750 mmHg 88%
23:00 +10°C° 0 mm 4 mps 750 mmHg 89%
Show more